GW0869 Weather Reports


time (UTC)temp
C
wind
direction
speed
KPH
gust
KPH
rain 1hr
cm
rain 24hr
cm
rain mn
cm
humidity
%
barometer
mb
20260507023608 16 206 6.4 8.0 0.00 0.00 0.00 79 1016.0
20260507023106 16 224 6.4 8.0 0.00 0.00 0.00 80 1015.8
20260507022603 17 225 3.2 3.2 0.00 0.00 0.00 79 1016.0
20260507022058 17 191 4.8 4.8 0.00 0.00 0.00 79 1015.9
20260507021555 17 214 8.0 9.7 0.00 0.00 0.00 78 1015.8
20260507021051 17 224 4.8 4.8 0.00 0.00 0.00 78 1015.8
20260507020549 17 223 8.0 11.3 0.00 0.00 0.00 76 1015.9
20260507020045 17 207 6.4 8.0 0.00 0.00 0.00 77 1015.8
20260507015544 17 221 8.0 9.7 0.00 0.00 0.00 76 1015.7
20260507015041 18 245 6.4 8.0 0.00 0.00 0.00 76 1015.9
20260507014537 18 223 8.0 11.3 0.00 0.00 0.00 75 1015.6
20260507014033 18 161 11.3 16.1 0.00 0.00 0.00 73 1015.9
20260507013530 18 240 6.4 8.0 0.00 0.00 0.00 72 1015.8
20260507013027 18 241 4.8 4.8 0.00 0.00 0.00 69 1015.6
20260507012524 18 227 4.8 8.0 0.00 0.00 0.00 68 1015.6
20260507012020 19 215 4.8 4.8 0.00 0.00 0.00 67 1015.7
20260507011518 20 183 6.4 8.0 0.00 0.00 0.00 65 1015.8
20260507011014 20 199 1.6 1.6 0.00 0.00 0.00 66 1015.4
20260507010509 20 255 3.2 3.2 0.00 0.00 0.00 68 1015.7
20260507010005 19 249 6.4 8.0 0.00 0.00 0.00 66 1015.8
20260507005503 18 212 4.8 8.0 0.00 0.00 0.00 67 1015.8
20260507004959 19 237 8.0 9.7 0.00 0.00 0.00 65 1015.9
20260507004456 19 256 3.2 3.2 0.00 0.00 0.00 66 1015.8
20260507003954 19 207 8.0 9.7 0.00 0.00 0.00 64 1015.9
20260507003449 19 251 4.8 4.8 0.00 0.00 0.00 64 1015.7
20260507002944 20 249 1.6 3.2 0.00 0.00 0.00 63 1015.8
20260507002441 20 224 8.0 9.7 0.00 0.00 0.00 63 1015.8
20260507001938 20 230 6.4 8.0 0.00 0.00 0.00 63 1015.8
20260507001434 20 215 9.7 11.3 0.00 0.00 0.00 65 1015.9
20260507000932 20 226 8.0 11.3 0.00 0.00 0.00 62 1015.7
20260507000427 19 265 9.7 11.3 0.00 0.00 0.00 64 1015.9
20260506235923 19 240 9.7 11.3 0.00 0.00 0.00 62 1015.7
20260506235421 20 210 6.4 9.7 0.00 0.00 0.00 63 1015.9
20260506234915 20 223 14.5 16.1 0.00 0.00 0.00 63 1015.8
20260506234414 20 213 11.3 12.9 0.00 0.00 0.00 62 1015.9
20260506233911 20 232 3.2 4.8 0.00 0.00 0.00 61 1015.6
20260506233407 20 246 8.0 9.7 0.00 0.00 0.00 62 1015.7
20260506232904 20 240 8.0 9.7 0.00 0.00 0.00 63 1016.0
20260506232400 19 253 16.1 17.7 0.00 0.00 0.00 65 1016.0
20260506231856 20 219 9.7 11.3 0.00 0.00 0.00 64 1016.1
20260506231354 20 254 12.9 17.7 0.00 0.00 0.00 64 1016.0
20260506230851 20 226 14.5 16.1 0.00 0.00 0.00 62 1016.0
20260506230348 20 222 12.9 14.5 0.00 0.00 0.00 63 1016.1
20260506225844 20 234 8.0 9.7 0.00 0.00 0.00 67 1016.0
20260506225341 20 153 8.0 11.3 0.00 0.00 0.00 64 1016.1
20260506224833 20 238 8.0 12.9 0.00 0.00 0.00 65 1016.3
20260506224330 20 253 4.8 4.8 0.00 0.00 0.00 65 1016.2
20260506223826 20 236 12.9 16.1 0.00 0.00 0.00 64 1016.3
20260506223321 20 212 12.9 16.1 0.00 0.00 0.00 65 1016.2
20260506222819 20 144 4.8 4.8 0.00 0.00 0.00 65 1016.3
20260506222314 20 241 6.4 9.7 0.00 0.00 0.00 64 1016.5
20260506221813 20 263 11.3 14.5 0.00 0.00 0.00 64 1016.6
20260506221310 20 245 8.0 9.7 0.00 0.00 0.00 64 1016.7
20260506220807 20 255 11.3 14.5 0.00 0.00 0.00 64 1016.5
20260506220302 20 240 17.7 20.9 0.00 0.00 0.00 64 1016.9
20260506215759 21 225 14.5 16.1 0.00 0.00 0.00 64 1016.8
20260506215255 20 255 14.5 16.1 0.00 0.00 0.00 64 1016.8
20260506214751 20 239 16.1 20.9 0.00 0.00 0.00 63 1016.9
20260506214248 21 242 9.7 12.9 0.00 0.00 0.00 63 1017.0
20260506213747 20 236 14.5 20.9 0.00 0.00 0.00 64 1017.2
20260506213243 21 259 11.3 14.5 0.00 0.00 0.00 64 1016.9
20260506212740 20 260 6.4 8.0 0.00 0.00 0.00 62 1017.1
20260506212236 21 220 4.8 9.7 0.00 0.00 0.00 63 1017.0
20260506211726 21 251 8.0 12.9 0.00 0.00 0.00 62 1017.0
20260506211222 20 249 8.0 11.3 0.00 0.00 0.00 63 1017.2
20260506210719 20 228 6.4 9.7 0.00 0.00 0.00 62 1017.3
20260506210216 20 259 12.9 16.1 0.00 0.00 0.00 61 1017.4
20260506205713 20 243 12.9 17.7 0.00 0.00 0.00 62 1017.1
20260506205208 20 227 11.3 14.5 0.00 0.00 0.00 61 1017.4
20260506204705 20 250 11.3 12.9 0.00 0.00 0.00 62 1017.2
20260506204203 20 240 17.7 20.9 0.00 0.00 0.00 61 1017.0
20260506203701 21 234 11.3 14.5 0.00 0.00 0.00 62 1017.4
20260506203158 20 181 4.8 8.0 0.00 0.00 0.00 62 1017.2
20260506202656 20 208 4.8 9.7 0.00 0.00 0.00 65 1017.5
20260506202151 20 241 8.0 9.7 0.00 0.00 0.00 67 1017.5
20260506201648 20 222 6.4 8.0 0.00 0.00 0.00 67 1017.6
20260506201144 20 261 3.2 4.8 0.00 0.00 0.00 69 1017.6
20260506200641 19 242 8.0 9.7 0.00 0.00 0.00 69 1017.7
20260506200138 20 216 9.7 17.7 0.00 0.00 0.00 69 1017.6
20260506195635 20 217 11.3 14.5 0.00 0.00 0.00 67 1017.7
20260506195131 20 236 11.3 12.9 0.00 0.00 0.00 69 1017.7
20260506194629 19 232 11.3 12.9 0.00 0.00 0.00 70 1017.8
20260506194125 19 238 12.9 16.1 0.00 0.00 0.00 69 1017.7
20260506193623 19 253 11.3 14.5 0.00 0.00 0.00 70 1017.6
20260506193120 18 226 19.3 24.1 0.00 0.00 0.00 70 1017.9
20260506192616 19 242 9.7 16.1 0.00 0.00 0.00 69 1017.7
20260506192112 20 246 11.3 14.5 0.00 0.00 0.00 68 1017.8
20260506191609 20 231 11.3 12.9 0.00 0.00 0.00 69 1017.9
20260506191105 20 218 6.4 9.7 0.00 0.00 0.00 69 1018.0
20260506190603 20 196 12.9 14.5 0.00 0.00 0.00 67 1018.0
20260506190100 19 225 8.0 11.3 0.00 0.00 0.00 69 1018.0
20260506185557 20 214 8.0 9.7 0.00 0.00 0.00 69 1017.8
20260506185053 20 221 8.0 9.7 0.00 0.00 0.00 67 1017.9
20260506184551 20 262 9.7 12.9 0.00 0.00 0.00 68 1018.0
20260506184048 20 260 8.0 9.7 0.00 0.00 0.00 67 1018.2
20260506183544 20 238 6.4 8.0 0.00 0.00 0.00 66 1017.8
20260506183040 20 235 8.0 12.9 0.00 0.00 0.00 65 1018.1
20260506182538 21 204 8.0 11.3 0.00 0.00 0.00 64 1017.9
20260506182035 20 171 3.2 3.2 0.00 0.00 0.00 65 1018.1
20260506181533 20 283 11.3 12.9 0.00 0.00 0.00 65 1018.1
20260506181029 20 203 4.8 8.0 0.00 0.00 0.00 64 1017.9
20260506180526 19 218 8.0 11.3 0.00 0.00 0.00 68 1018.1
20260506180023 19 223 0.0 0.0 0.00 0.00 0.00 68 1018.3
20260506175519 19 236 1.6 3.2 0.00 0.00 0.00 66 1018.0
20260506175016 20 283 1.6 3.2 0.00 0.00 0.00 67 1018.1
20260506174514 19 195 1.6 1.6 0.00 0.00 0.00 64 1018.2
20260506174010 18 246 1.6 1.6 0.00 0.00 0.00 64 1018.2
20260506173508 18 233 1.6 1.6 0.00 0.00 0.00 64 1018.4
20260506173005 19 237 6.4 11.3 0.00 0.00 0.00 63 1018.2
20260506172502 18 234 4.8 8.0 0.00 0.00 0.00 64 1018.0
20260506171958 19 314 6.4 8.0 0.00 0.00 0.00 64 1018.1
20260506171455 18 244 6.4 9.7 0.00 0.00 0.00 62 1018.2
20260506170953 18 168 0.0 0.0 0.00 0.00 0.00 65 1018.2
20260506170449 18 199 0.0 0.0 0.00 0.00 0.00 64 1018.1
20260506165942 18 266 4.8 4.8 0.00 0.00 0.00 67 1018.3
20260506165440 17 212 3.2 4.8 0.00 0.00 0.00 68 1018.3
20260506164936 18 197 8.0 9.7 0.00 0.00 0.00 65 1018.2
20260506164433 18 240 8.0 12.9 0.00 0.00 0.00 68 1018.0
20260506163925 17 241 4.8 8.0 0.00 0.00 0.00 67 1018.4
20260506163419 17 186 4.8 8.0 0.00 0.00 0.00 68 1018.3
20260506162914 17 233 8.0 9.7 0.00 0.00 0.00 68 1018.4
20260506162413 17 270 1.6 3.2 0.00 0.00 0.00 69 1018.3
20260506161909 17 187 4.8 8.0 0.00 0.00 0.00 67 1018.2
20260506161408 17 182 3.2 3.2 0.00 0.00 0.00 68 1018.2
20260506160859 17 231 6.4 8.0 0.00 0.00 0.00 68 1018.2
20260506160356 17 192 0.0 0.0 0.00 0.00 0.00 68 1018.2
20260506155854 17 31 3.2 3.2 0.00 0.00 0.00 68 1018.1
20260506155350 17 109 0.0 0.0 0.00 0.00 0.00 69 1018.0
20260506153508 17 124 0.0 0.0 0.00 0.00 0.00 69 1018.2
20260506153005 16 71 0.0 0.0 0.00 0.00 0.00 70 1018.1
20260506152502 16 80 1.6 3.2 0.00 0.00 0.00 69 1018.0
20260506152000 16 83 0.0 0.0 0.00 0.00 0.00 70 1018.2
20260506151458 16 95 0.0 0.0 0.00 0.00 0.00 71 1018.1
20260506150955 16 100 0.0 0.0 0.00 0.00 0.00 72 1018.3
20260506150450 15 84 0.0 1.6 0.00 0.00 0.00 73 1018.2
20260506145948 15 60 0.0 0.0 0.00 0.00 0.00 75 1018.3
20260506145444 14 53 3.2 3.2 0.00 0.00 0.00 75 1018.1
20260506144942 15 74 0.0 1.6 0.00 0.00 0.00 74 1018.1
20260506144438 14 79 3.2 3.2 0.00 0.00 0.00 75 1017.9
20260506143937 13 78 0.0 0.0 0.00 0.00 0.00 77 1018.2
20260506143433 13 52 1.6 3.2 0.00 0.00 0.00 77 1018.1
20260506142932 13 68 0.0 1.6 0.00 0.00 0.00 78 1017.9
20260506142429 13 51 0.0 0.0 0.00 0.00 0.00 78 1017.9
20260506141927 13 78 0.0 0.0 0.00 0.00 0.00 79 1017.8
20260506141425 12 63 0.0 0.0 0.00 0.00 0.00 80 1017.7
20260506140923 12 65 0.0 0.0 0.00 0.00 0.00 81 1017.9
20260506140420 12 70 0.0 1.6 0.00 0.00 0.00 82 1017.7
20260506135917 11 66 0.0 1.6 0.00 0.00 0.00 83 1017.7
20260506135414 11 71 0.0 0.0 0.00 0.00 0.00 84 1017.6
20260506134910 11 70 0.0 0.0 0.00 0.00 0.00 84 1017.6
20260506134406 11 65 1.6 1.6 0.00 0.00 0.00 85 1017.7
20260506133903 11 68 0.0 1.6 0.00 0.00 0.00 85 1017.7
20260506133400 11 62 0.0 0.0 0.00 0.00 0.00 86 1017.7
20260506132857 10 62 0.0 0.0 0.00 0.00 0.00 86 1017.7
20260506132354 10 64 0.0 0.0 0.00 0.00 0.00 87 1017.7
20260506131852 10 48 0.0 0.0 0.00 0.00 0.00 87 1017.6
20260506131348 10 70 0.0 0.0 0.00 0.00 0.00 87 1017.6
20260506130845 10 76 0.0 0.0 0.00 0.00 0.00 87 1017.6
20260506130341 10 76 0.0 0.0 0.00 0.00 0.00 86 1017.4
20260506125839 10 57 0.0 0.0 0.00 0.00 0.00 86 1017.4
20260506125338 10 64 0.0 0.0 0.00 0.00 0.00 86 1017.5
20260506124835 10 61 0.0 1.6 0.00 0.00 0.00 86 1017.4
20260506124332 10 67 4.8 8.0 0.00 0.00 0.00 86 1017.3
20260506123830 11 76 1.6 1.6 0.00 0.00 0.00 86 1017.2
20260506123328 11 67 0.0 0.0 0.00 0.00 0.00 86 1017.2
20260506122825 10 61 0.0 0.0 0.00 0.00 0.00 86 1017.1
20260506122322 11 61 0.0 0.0 0.00 0.00 0.00 86 1017.1
20260506121820 11 67 0.0 0.0 0.00 0.00 0.00 86 1016.9
20260506121317 11 75 1.6 3.2 0.00 0.00 0.00 86 1016.9
20260506120814 11 44 3.2 4.8 0.00 0.00 0.00 86 1017.0
20260506120312 11 60 3.2 4.8 0.00 0.00 0.00 86 1016.8
20260506115809 11 65 1.6 1.6 0.00 0.00 0.00 86 1016.9
20260506115307 11 70 0.0 1.6 0.00 0.00 0.00 86 1016.8
20260506114805 11 55 3.2 4.8 0.00 0.00 0.00 86 1016.8
20260506114302 11 64 0.0 0.0 0.00 0.00 0.00 86 1016.8
20260506113801 11 69 0.0 0.0 0.00 0.00 0.00 86 1016.9
20260506113258 11 74 0.0 1.6 0.00 0.00 0.00 86 1016.9
20260506112754 11 76 0.0 0.0 0.00 0.00 0.00 87 1016.8
20260506112252 11 61 0.0 0.0 0.00 0.00 0.00 87 1016.7
20260506111749 11 55 0.0 1.6 0.00 0.00 0.00 87 1016.8
20260506111247 11 65 0.0 1.6 0.00 0.00 0.00 87 1016.9
20260506110743 11 63 1.6 1.6 0.00 0.00 0.00 87 1016.9
20260506110241 11 68 1.6 1.6 0.00 0.00 0.00 87 1016.9
20260506105737 11 56 1.6 3.2 0.00 0.00 0.00 88 1017.0
20260506105235 11 76 0.0 1.6 0.00 0.00 0.00 88 1016.6
20260506104732 11 67 1.6 1.6 0.00 0.00 0.00 88 1016.7
20260506104230 11 56 0.0 0.0 0.00 0.00 0.00 88 1016.5
20260506103727 11 84 1.6 1.6 0.00 0.00 0.00 88 1016.7
20260506103224 11 76 1.6 1.6 0.00 0.00 0.00 88 1016.6
20260506102722 11 76 4.8 8.0 0.00 0.00 0.00 88 1016.5
20260506102220 11 72 0.0 0.0 0.00 0.00 0.00 88 1016.8
20260506101716 11 57 1.6 3.2 0.00 0.00 0.00 88 1016.7
20260506101213 11 56 0.0 1.6 0.00 0.00 0.00 88 1016.9
20260506100711 11 61 0.0 1.6 0.00 0.00 0.00 88 1016.7
20260506100209 11 93 1.6 3.2 0.00 0.00 0.00 88 1016.8
20260506095707 11 76 0.0 0.0 0.00 0.00 0.00 88 1016.8
20260506095203 11 65 0.0 0.0 0.00 0.00 0.00 88 1016.8
20260506094701 11 67 0.0 0.0 0.00 0.00 0.00 88 1017.1
20260506094158 11 70 0.0 0.0 0.00 0.00 0.00 88 1017.0
20260506093657 11 76 0.0 0.0 0.00 0.00 0.00 88 1016.9
20260506093153 11 71 0.0 0.0 0.00 0.00 0.00 88 1017.0
20260506092651 11 65 1.6 3.2 0.00 0.00 0.00 88 1016.9
20260506092149 11 62 0.0 0.0 0.00 0.00 0.00 88 1016.9
20260506091647 11 66 0.0 0.0 0.00 0.00 0.00 88 1017.1
20260506091143 11 68 0.0 1.6 0.00 0.00 0.00 88 1017.0
20260506090641 11 71 0.0 1.6 0.00 0.00 0.00 88 1017.3
20260506090138 11 71 0.0 0.0 0.00 0.00 0.00 88 1017.1
20260506085635 11 56 1.6 1.6 0.00 0.00 0.00 88 1017.3
20260506085131 11 85 3.2 3.2 0.00 0.00 0.00 88 1017.3
20260506084627 11 73 0.0 0.0 0.00 0.00 0.00 87 1017.4
20260506084124 11 70 1.6 3.2 0.00 0.00 0.00 88 1017.4
20260506083621 11 74 3.2 4.8 0.00 0.00 0.00 88 1017.3
20260506083119 12 86 0.0 1.6 0.00 0.00 0.00 88 1017.3
20260506082615 12 68 0.0 0.0 0.00 0.00 0.00 88 1017.5
20260506082111 12 66 0.0 0.0 0.00 0.00 0.00 87 1017.3
20260506081609 12 87 1.6 1.6 0.00 0.00 0.00 87 1017.4
20260506081107 12 82 1.6 1.6 0.00 0.00 0.00 87 1017.4
20260506080604 12 73 0.0 0.0 0.00 0.00 0.00 87 1017.3
20260506073044 13 95 3.2 3.2 0.00 0.00 0.00 86 1017.4
20260506072541 13 123 4.8 4.8 0.00 0.00 0.00 86 1017.4
20260506072039 13 112 3.2 3.2 0.00 0.00 0.00 86 1017.3
20260506071537 13 79 3.2 3.2 0.00 0.00 0.00 86 1017.2
20260506071034 13 130 6.4 8.0 0.00 0.00 0.00 86 1017.1
20260506070531 13 117 0.0 3.2 0.00 0.00 0.00 86 1017.2
20260506062509 13 111 1.6 1.6 0.00 0.00 0.00 85 1016.5
20260506062005 13 110 3.2 3.2 0.00 0.00 0.00 85 1016.7
20260506061501 13 100 0.0 0.0 0.00 0.00 0.00 85 1016.4
20260506060959 13 94 1.6 1.6 0.00 0.00 0.00 85 1016.6
20260506060457 13 121 0.0 1.6 0.00 0.00 0.00 85 1016.4
20260506050926 13 121 0.0 0.0 0.00 0.00 0.00 86 1016.2
20260506050424 13 121 0.0 0.0 0.00 0.00 0.00 86 1016.2
20260506044914 13 144 0.0 0.0 0.00 0.00 0.00 86 1016.2
20260506044412 13 149 0.0 0.0 0.00 0.00 0.00 86 1015.8
20260506043909 13 121 0.0 0.0 0.00 0.00 0.00 86 1015.8
20260506043406 13 135 0.0 0.0 0.00 0.00 0.00 86 1015.8
20260506042904 13 144 0.0 0.0 0.00 0.00 0.00 86 1016.0
20260506042403 13 155 0.0 0.0 0.00 0.00 0.00 86 1016.0
20260506041901 13 162 0.0 0.0 0.00 0.00 0.00 86 1015.6
20260506041358 13 160 0.0 0.0 0.00 0.00 0.00 86 1015.7
20260506040855 13 144 0.0 0.0 0.00 0.00 0.00 85 1015.7
20260506040353 13 170 1.6 1.6 0.00 0.00 0.00 85 1015.7
20260506035848 13 174 0.0 0.0 0.00 0.00 0.00 85 1015.7
20260506035346 13 189 0.0 0.0 0.00 0.00 0.00 85 1015.4
20260506034843 13 144 1.6 1.6 0.00 0.00 0.00 85 1015.2
20260506034340 13 182 0.0 0.0 0.00 0.00 0.00 85 1015.2
20260506033837 13 182 1.6 1.6 0.00 0.00 0.00 85 1015.3
20260506033334 13 162 0.0 0.0 0.00 0.00 0.00 84 1015.2
20260506032831 13 176 3.2 3.2 0.00 0.00 0.00 84 1015.0
20260506032328 14 203 1.6 3.2 0.00 0.00 0.00 84 1015.1
20260506031825 14 194 1.6 1.6 0.00 0.00 0.00 84 1015.0
20260506031322 14 222 1.6 3.2 0.00 0.00 0.00 83 1014.9
20260506030820 14 210 1.6 1.6 0.00 0.00 0.00 83 1014.7
20260506030318 14 166 3.2 3.2 0.00 0.00 0.00 82 1014.7
20260506025814 14 240 1.6 3.2 0.00 0.00 0.00 82 1014.9
20260506025311 15 224 1.6 3.2 0.00 0.00 0.00 81 1014.6
20260506024808 15 217 1.6 1.6 0.00 0.00 0.00 81 1014.5
20260506024304 15 195 4.8 8.0 0.00 0.00 0.00 80 1014.4